Location: Ariel
(45.9570°N, 122.5700°W)
Time: 21:17:08
(UTC-07:00)

Courier 1B - Visible Passes

Search period start: 21 July 2019 00:00
Search period end: 31 July 2019 00:00
Orbit: 963 x 1209 km, 28.3° (Epoch: 20 July)

Date Brightness Start Highest point End Pass type
(mag) Time Alt. Az. Time Alt. Az. Time Alt. Az.
26 Jul 9.8 05:13:19 10° S 05:16:47 13° SSE 05:20:15 10° SE visible
27 Jul 9.8 04:21:30 10° S 04:23:14 11° SSE 04:24:58 10° SE visible
29 Jul 9.6 04:24:58 10° SSW 04:28:56 15° SSE 04:33:05 10° SE visible
30 Jul 9.6 03:34:24 12° SSE 03:35:23 13° SSE 03:38:25 10° SE visible
